Location: Unspecified
(29.9680°N, 0.0000°E)
Time: 02:09:42
(UTC+00:00)

Courier 1B Rocket - Visible Passes

Search period start: 25 June 2019 00:00
Search period end: 05 July 2019 00:00
Orbit: 920 x 1202 km, 28.2° (Epoch: 24 June)

Date Brightness Start Highest point End Pass type
(mag) Time Alt. Az. Time Alt. Az. Time Alt. Az.
25 Jun 5.4 02:41:09 47° SSW 02:42:29 53° SSE 02:49:08 10° E visible
25 Jun 5.2 04:28:53 10° W 04:35:58 78° S 04:42:33 10° E visible
26 Jun 6.1 01:43:35 34° ESE 01:43:35 34° ESE 01:48:02 10° E visible
26 Jun 5.1 03:29:56 22° WSW 03:34:51 73° S 03:41:36 10° E visible
27 Jun 7.4 00:46:01 13° E 00:46:01 13° E 00:46:43 10° E visible
27 Jun 5.2 02:32:21 55° SW 02:33:41 65° SSE 02:40:36 10° E visible
27 Jun 5.2 04:20:05 10° W 04:27:17 78° S 04:33:58 10° E visible
28 Jun 6.0 01:34:48 41° ESE 01:34:48 41° ESE 01:39:32 10° E visible
28 Jun 5.1 03:21:08 22° W 03:26:07 78° S 03:33:01 10° E visible
29 Jun 7.3 00:37:15 15° E 00:37:15 15° E 00:38:20 10° E visible
29 Jun 5.1 02:23:35 60° SW 02:24:55 74° S 02:32:01 10° E visible
29 Jun 5.2 04:11:17 10° W 04:18:36 75° S 04:25:21 10° ESE visible
30 Jun 5.9 01:26:04 44° ESE 01:26:04 44° ESE 01:30:56 10° E visible
30 Jun 5.2 03:12:25 23° W 03:17:24 79° S 03:24:24 10° E visible
01 Jul 7.3 00:28:36 15° E 00:28:36 15° E 00:29:46 10° E visible
01 Jul 5.1 02:14:57 65° WSW 02:16:09 79° S 02:23:23 10° E visible
01 Jul 5.2 04:02:29 10° W 04:09:50 67° SSW 04:16:40 10° ESE visible
02 Jul 6.0 01:17:35 43° E 01:17:35 43° E 01:22:18 10° E visible
02 Jul 5.2 03:03:56 25° W 03:08:40 75° S 03:15:45 10° ESE visible
03 Jul 7.4 00:20:18 14° E 00:20:18 14° E 00:21:08 10° E visible
03 Jul 5.2 02:06:40 72° SW 02:07:24 79° S 02:14:44 10° E visible
03 Jul 5.4 03:53:43 10° W 04:01:02 56° SSW 04:07:51 10° ESE visible
03 Jul 6.9 21:12:43 10° SSW 21:14:41 17° SSW 21:14:41 17° SSW visible
04 Jul 6.3 01:09:33 36° E 01:09:33 36° E 01:13:38 10° E visible
04 Jul 5.2 02:55:57 31° W 02:59:52 67° SSW 03:07:02 10° ESE visible
04 Jul 6.5 20:12:54 10° S 20:17:54 19° SSE 20:18:56 18° SE visible
04 Jul 7.0 22:03:45 10° SW 22:05:25 17° SW 22:05:25 17° SW visible
